Flag for Russia Weather past 2 weeks in Surgut, Russia

Now
16 °F

Passing clouds.


Feels Like: 2 °F
Forecast: 14 / 20 °F
Wind: 13 mph from Southwest

Location: Surgut Airport

Current Time: Jan 28, 2015 at 10:03:10 PM

Latest Report: Jan 28, 2015 at 9:30 PM


Visibility: 4 mi

Pressure: 29.77 "Hg

Humidity: 73%

Dew point: 9 °F

Location of SurgutLocation

Historic Weather in Surgut — Graph

°F

Surgut temperature yesterday

Maximum temperature yesterday: 16 °F (at 9:00 AM)
Minimum temperature yesterday: 5 °F (at 5:00 AM)
Average temperature yesterday: 14 °F

Past Weeks' High & Low Weather Summary

 TemperatureHumidityPressure
High28 °F (Jan 19, 3:30 PM)100% (Jan 19, 1:00 AM)30.66 "Hg (Jan 19, 1:00 AM)
Low-35 °F (Jan 23, 4:30 AM)66% (Jan 23, 3:30 AM)29.15 "Hg (Jan 19, 11:00 AM)
Average0 °F81%29.91 "Hg
* Reported Jan 13 9:00 PM — Jan 28 9:00 PM, Surgut, Weather by CustomWeather, © 2014

Note: Actual official high and low records may vary slightly from our data, if they occured in-between our weather recording intervals... More about our weather records

Advertising

Surgut weather history for previous 24 hours

 ConditionsComfort  
Time TempWeatherWind HumidityBarometerVisibility
9:00 PM
Jan 28
16 °FPassing clouds.15 mph73%29.77 "Hg4 mi
8:30 PM16 °FPassing clouds.13 mph79%29.77 "Hg4 mi
8:00 PM18 °FSnow flurries. Passing clouds.15 mph79%29.77 "Hg4 mi
7:30 PM18 °FSnow flurries. Passing clouds.17 mph79%29.77 "Hg4 mi
7:00 PM18 °FSnow flurries. Passing clouds.15 mph79%29.77 "Hg4 mi
6:30 PM16 °FPassing clouds.15 mph79%29.77 "Hg4 mi
6:00 PM14 °FPassing clouds.13 mph85%29.77 "Hg4 mi
5:30 PM14 °FPassing clouds.13 mph79%29.77 "Hg4 mi
5:00 PM12 °FPassing clouds.13 mph79%29.80 "Hg4 mi
4:30 PM10 °FPartly sunny.13 mph79%29.80 "Hg4 mi
4:00 PM10 °FScattered clouds.13 mph79%29.80 "Hg4 mi
3:30 PM12 °FScattered clouds.17 mph73%29.80 "Hg4 mi
3:00 PM12 °FScattered clouds.17 mph73%29.80 "Hg4 mi
2:30 PM12 °FScattered clouds.17 mph73%29.80 "Hg4 mi
2:00 PM10 °FScattered clouds.17 mph79%29.80 "Hg4 mi
1:30 PM10 °FSnow flurries. Partly sunny.20 mph79%29.80 "Hg4 mi
1:00 PM10 °FSnow flurries. Partly sunny.20 mph79%29.80 "Hg4 mi
12:30 PM10 °FPartly sunny.20 mph72%29.80 "Hg4 mi
12:00 PM10 °FPartly sunny.17 mph72%29.80 "Hg4 mi
11:30 AM9 °FScattered clouds.17 mph78%29.80 "Hg4 mi
11:00 AM10 °FBroken clouds.15 mph79%29.80 "Hg4 mi
10:30 AM10 °FBroken clouds.17 mph79%29.80 "Hg4 mi
10:00 AM10 °FBroken clouds.13 mph79%29.80 "Hg4 mi
9:30 AM10 °FPartly cloudy.13 mph79%29.80 "Hg4 mi
9:00 AM10 °FPassing clouds.15 mph79%29.80 "Hg4 mi
8:30 AM10 °FSnow flurries. Passing clouds.15 mph79%29.80 "Hg4 mi
8:00 AM10 °FSnow flurries. Passing clouds.13 mph79%29.80 "Hg4 mi
7:30 AM10 °FSnow flurries. Passing clouds.13 mph85%29.80 "Hg4 mi
7:00 AM10 °FSnow flurries. Passing clouds.15 mph79%29.80 "Hg4 mi
6:30 AM12 °FSnow flurries. Passing clouds.15 mph79%29.83 "Hg4 mi
6:00 AM12 °FOvercast.17 mph79%29.83 "Hg3 mi
5:30 AM12 °FLight snow. Overcast.10 mph79%29.83 "Hg3 mi
5:00 AM12 °FLight snow. Overcast.13 mph79%29.83 "Hg4 mi
4:30 AM12 °FLight snow. Overcast.13 mph79%29.86 "Hg4 mi
4:00 AM12 °FLight snow. Overcast.13 mph79%29.86 "Hg4 mi
3:30 AM10 °FLight snow. Overcast.10 mph85%29.89 "Hg4 mi
3:00 AM10 °FLight snow. Overcast.10 mph85%29.92 "Hg4 mi
2:30 AM12 °FLight snow. Overcast.10 mph79%29.92 "Hg4 mi
2:00 AM10 °FLight snow. Overcast.13 mph85%29.92 "Hg4 mi
1:30 AM10 °FPartly cloudy.10 mph85%29.95 "Hg4 mi
1:00 AM10 °FPassing clouds.10 mph92%29.95 "Hg4 mi
12:30 AM12 °FPassing clouds.10 mph85%29.98 "Hg4 mi
12:00 AM12 °FPartly cloudy.10 mph85%29.98 "Hg4 mi
11:30 PM
Jan 27
14 °FPassing clouds.13 mph79%29.98 "Hg4 mi
11:00 PM16 °FLow clouds.13 mph86%29.98 "Hg4 mi
10:30 PM16 °FLow clouds.10 mph86%29.98 "Hg4 mi
10:00 PM16 °FLow clouds.13 mph86%30.01 "Hg4 mi
Weather by CustomWeather, © 2014

See weather overviewHow to use our weather pages